Regional Weather Roundup
Issued by NWS Cleveland, OH

Home | Current Version | Previous Version | Graphics & Text | Print | Product List | Glossary On
Versions: 1 2 3 4 5 6 7 8 9 10 11 12 13 14 15 16 17 18 19 20 21 22 23 24 25 26 27 28 29 30 31 32 33 34 35 36 37 38 39 40 41 42 43 44 45 46 47 48 49 50
848
ASUS41 KCLE 231112
RWRCLE
OHIO REGIONAL WEATHER ROUNDUP
NATIONAL WEATHER SERVICE WILMINGTON, OH
700 AM EDT SAT SEP 23 2017

NOTE: "FAIR" INDICATES FEW OR NO CLOUDS BELOW 12,000 FEET WITH NO
SIGNIFICANT WEATHER AND/OR OBSTRUCTIONS TO VISIBILITY.

OHZ001>008-015>018-024>027-034-035-043-044-231200-
   NORTHWEST OHIO

CITY           SKY/WX    TMP DP  RH WIND       PRES   REMARKS
DEFIANCE       FAIR      63  60  90 E3        30.11R FOG
FINDLAY        FAIR      63  59  87 SE6       30.11R
TOLEDO EXPRESS FAIR      62  62 100 CALM      30.11R FOG
TOLEDO EXEC    FAIR      64  62  93 CALM      30.12R FOG
LIMA           FAIR      61  61 100 E5        30.12R
$$

OHZ009>014-019>023-028>033-038-089-231200-
   NORTHEAST OHIO

CITY           SKY/WX    TMP DP  RH WIND       PRES   REMARKS
CLE-HOPKINS    FAIR      65  59  81 CALM      30.13R
CLE-LAKEFRONT  FAIR      66  58  75 SW3       30.10R
CUY CO. ARPT   CLEAR     64  55  72 CALM      30.12
LORAIN-ELYRIA  FAIR      59  54  83 SW3       30.12S HAZE
ASHTABULA      FAIR      57  56  96 CALM      30.14R
AKRON-CANTON   FAIR      61  57  87 NE6       30.14R
WOOSTER        FAIR      54  53  97 CALM      30.14R
MANSFIELD      FAIR      62  61  96 CALM      30.14R
YOUNGSTOWN     FAIR      56  56 100 E5        30.13S
$$

OHZ042-051>053-060>062-070>072-077>081-231200-
  SOUTHWEST OHIO

CITY           SKY/WX    TMP DP  RH WIND       PRES   REMARKS
CINC-COVINGTON FAIR      69  66  90 N3        30.10R
CINC-LUNKEN    FAIR      62  62 100 CALM      30.10S FOG
HAMILTON       FAIR      60  60 100 CALM      30.11R FOG
DAYTON         FAIR      65  63  93 CALM      30.12R
WRIGHT-PAT AFB CLEAR     63  63 100 CALM      30.11R
DAYTON GENERAL FAIR      64  63  96 NE3       30.10R
WILMINGTON     FAIR      59  59 100 CALM      30.11R FOG
$$

OHZ036-037-039>041-045>050-054>059-063>069-073>076-082>088-231200-
  CENTRAL AND SOUTHEAST OHIO

CITY           SKY/WX    TMP DP  RH WIND       PRES   REMARKS
COLUMBUS       FAIR      64  62  93 N5        30.11R
OSU AIRPORT    FAIR      63  62  97 CALM      30.11R
BOLTON FIELD   NOT AVBL
RICKENBACK AFB FAIR      62  62 100 NE3       30.10R
NEWARK         FAIR      59  58  96 CALM      30.12R FOG
MARION         FAIR      59  56  89 CALM      30.13R FOG
LANCASTER      FOG       56  56 100 CALM      30.11R VSB 3/4
ZANESVILLE     FAIR      60  58  92 CALM      30.11R
NEW PHILLY     FAIR      56  56 100 CALM      30.14R FOG
$$




USA.gov is the U.S. government's official web portal to all federal, state and local government web resources and services.